Flag for Switzerland Weather past 2 weeks in Buchs, St. Gallen, Switzerland

Now
84 °F

Warm.


Feels Like: 87 °F
Forecast: 71 / 100 °F
Wind: 9 mph from Northwest

Location: Vaduz

Current Time: Jul 6, 2015 at 5:44:52 PM

Latest Report: Jul 6, 2015 at 4:00 PM


Visibility: N/A

Pressure: 30.04 "Hg

Humidity: 58%

Dew point: 68 °F

Location of BuchsLocation

Historic Weather in Buchs — Graph

°F

Buchs temperature yesterday

Maximum temperature yesterday: 93 °F (at 4:00 PM)
Minimum temperature yesterday: 72 °F (at 12:00 AM)
Average temperature yesterday: 83 °F

Past Weeks' High & Low Weather Summary

 TemperatureHumidityPressure
High94 °F (Jul 4, 5:00 PM)98% (Jun 28, 5:00 AM)30.24 "Hg (Jun 28, 5:00 AM)
Low48 °F (Jun 24, 6:00 AM)29% (Jul 4, 5:00 PM)29.73 "Hg (Jun 22, 11:00 PM)
Average71 °F61%30.09 "Hg
* Reported Jun 21 4:00 PM — Jul 6 4:00 PM, Buchs, Weather by CustomWeather, © 2015

Note: Actual official high and low records may vary slightly from our data, if they occured in-between our weather recording intervals... More about our weather records

Advertising

Buchs weather history for previous 24 hours

 ConditionsComfort  
Time TempWeatherWind HumidityBarometerVisibility
4:00 PM
Mon, Jul 6
84 °FWarm.9 mph58%30.04 "HgN/A
3:00 PM84 °FWarm.8 mph61%30.05 "HgN/A
2:00 PM83 °FFog.7 mph63%30.07 "Hg6 mi
1:00 PM81 °FWarm.5 mph61%30.09 "HgN/A
12:00 PM79 °FWarm.6 mph65%30.11 "HgN/A
11:00 AM76 °FScattered clouds.3 mph69%30.13 "Hg6 mi
10:00 AM72 °FMild.2 mph80%30.16 "HgN/A
9:00 AM70 °FMild.2 mph87%30.18 "HgN/A
8:00 AM69 °FRain. Overcast.2 mph84%30.18 "Hg4 mi
7:00 AM69 °FMild.6 mph82%30.17 "HgN/A
6:00 AM69 °FMild.2 mph80%30.16 "HgN/A
4:00 AM73 °FMild.2 mph58%30.11 "HgN/A
3:00 AM76 °FMild.7 mph49%30.07 "HgN/A
2:00 AM76 °FPassing clouds.7 mph49%30.06 "Hg6 mi
1:00 AM79 °FWarm.7 mph42%30.03 "HgN/A
12:00 AM81 °FPleasantly warm.8 mph37%30.01 "HgN/A
11:00 PM
Sun, Jul 5
82 °FPassing clouds.7 mph37%30.01 "Hg6 mi
10:00 PM85 °FPleasantly warm.9 mph31%29.97 "HgN/A
9:00 PM84 °FWarm.8 mph56%29.93 "HgN/A
8:00 PM85 °FWarm.1 mph56%29.89 "HgN/A
7:00 PM85 °FWarm.2 mph52%29.91 "HgN/A
6:00 PM88 °FHot.2 mph45%29.90 "HgN/A
5:00 PM92 °FPassing clouds.5 mph41%29.90 "Hg10 mi
Weather by CustomWeather, © 2015

See weather overviewHow to use our weather pages